Location: Kawakawa
(35.3830°S, 174.0670°E)
Time: 10:34:31
(UTC+13:00)

Resurs 01 Rocket - Pass Details

Date: 24 January 2019
Orbit: 635 x 643 km, 98.1° (Epoch: 15 February)

Event Time Altitude Azimuth Distance (km) Brightness Sun altitude
Rises 23:14:03 0° 182° (S) 2,974 5.9 -25.9°
Reaches altitude 10° 23:16:35 10° 195° (SSW) 2,055 5.1 -26.2°
Maximum altitude 23:20:13 25° 249° (WSW) 1,306 3.7 -26.6°
Enters shadow 23:23:18 13° 300° (WNW) 1,861 4.0 -27.0°
